Time,TemperatureF,DewpointF,PressureIn,WindDirection,WindDirectionDegrees,WindSpeedMPH,WindSpeedGustMPH,Humidity,HourlyPrecipIn,Conditions,Clouds,dailyrainin,SoftwareType,DateUTC
2013-03-24 00:09:00,31.9,23.0,29.99,West,264,0.0,1.0,69,0.00,,,0.00,weatherlink.com 1.10,2013-03-24 04:09:00,
2013-03-24 00:24:00,31.5,22.0,29.99,WNW,295,1.0,2.0,69,0.00,,,0.00,weatherlink.com 1.10,2013-03-24 04:24:00,
2013-03-24 00:39:00,30.4,23.0,29.98,NW,314,1.0,3.0,75,0.00,,,0.00,weatherlink.com 1.10,2013-03-24 04:39:00,
2013-03-24 00:54:00,31.8,22.0,29.98,West,269,0.0,1.0,68,0.00,,,0.00,weatherlink.com 1.10,2013-03-24 04:54:00,
2013-03-24 01:09:00,32.1,22.0,29.98,West,269,0.0,1.0,67,0.00,,,0.00,weatherlink.com 1.10,2013-03-24 05:09:00,
2013-03-24 01:24:00,31.1,22.0,29.97,NW,316,1.0,2.0,69,0.00,,,0.00,weatherlink.com 1.10,2013-03-24 05:24:00,
2013-03-24 01:40:00,29.1,23.0,29.96,NW,311,1.0,3.0,78,0.00,,,0.00,weatherlink.com 1.10,2013-03-24 05:40:00,
2013-03-24 01:55:00,29.4,22.0,29.96,WNW,294,0.0,2.0,75,0.00,,,0.00,weatherlink.com 1.10,2013-03-24 05:55:00,
2013-03-24 02:10:00,29.0,22.0,29.96,SW,216,1.0,1.0,76,0.00,,,0.00,weatherlink.com 1.10,2013-03-24 06:10:00,
2013-03-24 02:25:00,29.8,22.0,29.98,WNW,294,1.0,4.0,73,0.00,,,0.00,weatherlink.com 1.10,2013-03-24 06:25:00,
2013-03-24 02:40:00,28.6,22.0,29.98,SE,138,2.0,2.0,76,0.00,,,0.00,weatherlink.com 1.10,2013-03-24 06:40:00,
2013-03-24 02:55:00,27.8,22.0,29.96,NW,316,1.0,3.0,79,0.00,,,0.00,weatherlink.com 1.10,2013-03-24 06:55:00,
2013-03-24 03:10:00,27.9,22.0,29.97,SE,146,1.0,2.0,78,0.00,,,0.00,weatherlink.com 1.10,2013-03-24 07:10:00,
2013-03-24 03:25:00,27.0,22.0,29.97,NW,323,2.0,2.0,82,0.00,,,0.00,weatherlink.com 1.10,2013-03-24 07:25:00,
2013-03-24 03:40:00,27.2,22.0,29.97,NW,323,1.0,3.0,82,0.00,,,0.00,weatherlink.com 1.10,2013-03-24 07:40:00,
2013-03-24 03:55:00,27.5,22.0,29.97,NW,323,1.0,2.0,80,0.00,,,0.00,weatherlink.com 1.10,2013-03-24 07:55:00,
2013-03-24 04:10:00,27.8,22.0,29.97,NW,319,0.0,1.0,78,0.00,,,0.00,weatherlink.com 1.10,2013-03-24 08:10:00,
2013-03-24 04:25:00,27.1,22.0,29.97,West,264,0.0,2.0,81,0.00,,,0.00,weatherlink.com 1.10,2013-03-24 08:25:00,
2013-03-24 04:40:00,26.6,22.0,29.97,WSW,248,0.0,1.0,82,0.00,,,0.00,weatherlink.com 1.10,2013-03-24 08:40:00,
2013-03-24 04:55:00,25.6,22.0,29.97,NW,316,2.0,2.0,85,0.00,,,0.00,weatherlink.com 1.10,2013-03-24 08:55:00,
2013-03-24 05:10:00,26.3,22.0,29.98,WNW,298,2.0,3.0,83,0.00,,,0.00,weatherlink.com 1.10,2013-03-24 09:10:00,
2013-03-24 05:25:00,27.1,22.0,29.99,NW,315,2.0,3.0,80,0.00,,,0.00,weatherlink.com 1.10,2013-03-24 09:25:00,
2013-03-24 05:40:00,27.7,22.0,30.00,NW,316,2.0,3.0,79,0.00,,,0.00,weatherlink.com 1.10,2013-03-24 09:40:00,
2013-03-24 05:55:00,27.6,22.0,30.00,WNW,294,0.0,1.0,78,0.00,,,0.00,weatherlink.com 1.10,2013-03-24 09:55:00,
2013-03-24 06:10:00,25.7,22.0,29.98,NNW,329,2.0,2.0,84,0.00,,,0.00,weatherlink.com 1.10,2013-03-24 10:10:00,
2013-03-24 06:25:00,25.7,22.0,29.98,NW,322,1.0,3.0,84,0.00,,,0.00,weatherlink.com 1.10,2013-03-24 10:25:00,
2013-03-24 06:40:00,25.6,22.0,29.98,NNW,329,1.0,3.0,85,0.00,,,0.00,weatherlink.com 1.10,2013-03-24 10:40:00,
2013-03-24 07:10:00,26.0,22.0,29.98,NW,325,0.0,2.0,84,0.00,,,0.00,weatherlink.com 1.10,2013-03-24 11:10:00,
2013-03-24 07:25:00,26.6,22.0,29.99,NW,325,0.0,1.0,82,0.00,,,0.00,weatherlink.com 1.10,2013-03-24 11:25:00,
2013-03-24 07:40:00,26.9,22.0,29.99,NW,324,0.0,2.0,82,0.00,,,0.00,weatherlink.com 1.10,2013-03-24 11:40:00,
2013-03-24 07:55:00,27.3,23.0,30.00,NW,326,1.0,1.0,82,0.00,,,0.00,weatherlink.com 1.10,2013-03-24 11:55:00,
2013-03-24 08:10:00,28.1,23.0,30.00,NW,316,0.0,1.0,82,0.00,,,0.00,weatherlink.com 1.10,2013-03-24 12:10:00,
2013-03-24 08:25:00,29.3,24.0,30.00,NW,318,0.0,1.0,81,0.00,,,0.00,weatherlink.com 1.10,2013-03-24 12:25:00,
2013-03-24 08:40:00,31.8,24.0,30.00,NW,325,2.0,3.0,73,0.00,,,0.00,weatherlink.com 1.10,2013-03-24 12:40:00,
2013-03-24 08:55:00,33.5,24.0,29.99,NNW,333,3.0,5.0,68,0.00,,,0.00,weatherlink.com 1.10,2013-03-24 12:55:00,
2013-03-24 09:10:00,34.6,25.0,29.98,NW,319,2.0,4.0,67,0.00,,,0.00,weatherlink.com 1.10,2013-03-24 13:10:00,
2013-03-24 09:25:00,35.5,24.0,29.97,NNW,334,2.0,6.0,64,0.00,,,0.00,weatherlink.com 1.10,2013-03-24 13:25:00,
2013-03-24 09:40:00,36.9,25.0,29.97,NE,51,1.0,5.0,63,0.00,,,0.00,weatherlink.com 1.10,2013-03-24 13:40:00,
2013-03-24 09:55:00,38.1,24.0,29.95,NNE,24,4.0,11.0,57,0.00,,,0.00,weatherlink.com 1.10,2013-03-24 13:55:00,
2013-03-24 10:10:00,38.1,23.0,29.94,NNE,16,6.0,11.0,56,0.00,,,0.00,weatherlink.com 1.10,2013-03-24 14:10:00,
2013-03-24 10:26:00,39.1,24.0,29.94,East,90,3.0,11.0,54,0.00,,,0.00,weatherlink.com 1.10,2013-03-24 14:26:00,
2013-03-24 10:41:00,39.2,23.0,29.93,NW,320,4.0,11.0,52,0.00,,,0.00,weatherlink.com 1.10,2013-03-24 14:41:00,
2013-03-24 10:56:00,39.4,22.0,29.92,NW,307,5.0,8.0,51,0.00,,,0.00,weatherlink.com 1.10,2013-03-24 14:56:00,
2013-03-24 11:26:00,40.3,23.0,29.90,NE,47,2.0,8.0,51,0.00,,,0.00,weatherlink.com 1.10,2013-03-24 15:26:00,
2013-03-24 11:56:00,41.1,23.0,29.88,NE,48,4.0,9.0,49,0.00,,,0.00,weatherlink.com 1.10,2013-03-24 15:56:00,
2013-03-24 12:11:00,41.5,24.0,29.89,NNW,338,2.0,8.0,50,0.00,,,0.00,weatherlink.com 1.10,2013-03-24 16:11:00,
2013-03-24 12:41:00,42.6,23.0,29.86,NW,325,1.0,8.0,46,0.00,,,0.00,weatherlink.com 1.10,2013-03-24 16:41:00,
2013-03-24 12:56:00,42.8,23.0,29.86,ENE,74,2.0,7.0,45,0.00,,,0.00,weatherlink.com 1.10,2013-03-24 16:56:00,
2013-03-24 13:11:00,42.9,23.0,29.84,NNE,20,1.0,5.0,46,0.00,,,0.00,weatherlink.com 1.10,2013-03-24 17:11:00,
2013-03-24 13:26:00,43.4,25.0,29.83,SE,131,0.0,5.0,48,0.00,,,0.00,weatherlink.com 1.10,2013-03-24 17:26:00,
2013-03-24 13:41:00,43.6,24.0,29.80,ESE,122,2.0,7.0,46,0.00,,,0.00,weatherlink.com 1.10,2013-03-24 17:41:00,
2013-03-24 13:56:00,43.9,23.0,29.79,NW,314,2.0,6.0,44,0.00,,,0.00,weatherlink.com 1.10,2013-03-24 17:56:00,
2013-03-24 14:26:00,44.3,23.0,29.78,East,94,2.0,9.0,44,0.00,,,0.00,weatherlink.com 1.10,2013-03-24 18:26:00,
2013-03-24 14:41:00,44.8,22.0,29.77,East,95,3.0,6.0,41,0.00,,,0.00,weatherlink.com 1.10,2013-03-24 18:41:00,
2013-03-24 14:56:00,45.5,23.0,29.76,SE,145,1.0,5.0,41,0.00,,,0.00,weatherlink.com 1.10,2013-03-24 18:56:00,
2013-03-24 15:12:00,45.6,22.0,29.75,NNW,347,4.0,5.0,39,0.00,,,0.00,weatherlink.com 1.10,2013-03-24 19:12:00,
2013-03-24 15:26:00,45.8,23.0,29.74,SE,134,2.0,4.0,40,0.00,,,0.00,weatherlink.com 1.10,2013-03-24 19:26:00,
2013-03-24 15:42:00,45.5,23.0,29.74,North,354,1.0,6.0,41,0.00,,,0.00,weatherlink.com 1.10,2013-03-24 19:42:00,
2013-03-24 15:57:00,45.3,21.0,29.73,East,91,0.0,7.0,39,0.00,,,0.00,weatherlink.com 1.10,2013-03-24 19:57:00,
2013-03-24 16:12:00,45.5,22.0,29.73,SE,138,2.0,3.0,40,0.00,,,0.00,weatherlink.com 1.10,2013-03-24 20:12:00,
2013-03-24 16:27:00,45.2,22.0,29.73,SE,136,2.0,4.0,40,0.00,,,0.00,weatherlink.com 1.10,2013-03-24 20:27:00,
2013-03-24 16:42:00,45.4,23.0,29.73,WNW,291,2.0,2.0,41,0.00,,,0.00,weatherlink.com 1.10,2013-03-24 20:42:00,
2013-03-24 17:12:00,44.7,22.0,29.73,NW,323,0.0,2.0,40,0.00,,,0.00,weatherlink.com 1.10,2013-03-24 21:12:00,
2013-03-24 17:27:00,44.5,23.0,29.72,SE,141,1.0,4.0,42,0.00,,,0.00,weatherlink.com 1.10,2013-03-24 21:27:00,
2013-03-24 17:42:00,44.2,23.0,29.71,SSE,152,1.0,2.0,44,0.00,,,0.00,weatherlink.com 1.10,2013-03-24 21:42:00,
2013-03-24 17:57:00,44.1,23.0,29.70,SSE,153,0.0,1.0,43,0.00,,,0.00,weatherlink.com 1.10,2013-03-24 21:57:00,
2013-03-24 18:12:00,44.0,23.0,29.70,SSE,152,0.0,0.0,43,0.00,,,0.00,weatherlink.com 1.10,2013-03-24 22:12:00,
2013-03-24 18:27:00,43.7,23.0,29.70,SSW,212,0.0,2.0,44,0.00,,,0.00,weatherlink.com 1.10,2013-03-24 22:27:00,
2013-03-24 18:42:00,43.5,23.0,29.70,SW,226,0.0,0.0,45,0.00,,,0.00,weatherlink.com 1.10,2013-03-24 22:42:00,
2013-03-24 18:57:00,43.2,25.0,29.70,SW,226,0.0,1.0,48,0.00,,,0.00,weatherlink.com 1.10,2013-03-24 22:57:00,
2013-03-24 19:12:00,42.9,24.0,29.71,SW,226,0.0,0.0,48,0.00,,,0.00,weatherlink.com 1.10,2013-03-24 23:12:00,
2013-03-24 19:27:00,42.6,26.0,29.72,SW,225,0.0,1.0,52,0.00,,,0.00,weatherlink.com 1.10,2013-03-24 23:27:00,
2013-03-24 19:42:00,42.2,26.0,29.72,SW,225,0.0,0.0,54,0.00,,,0.00,weatherlink.com 1.10,2013-03-24 23:42:00,
2013-03-24 19:57:00,42.0,26.0,29.72,SW,226,0.0,0.0,53,0.00,,,0.00,weatherlink.com 1.10,2013-03-24 23:57:00,
2013-03-24 20:12:00,41.5,25.0,29.72,SW,225,0.0,0.0,53,0.00,,,0.00,weatherlink.com 1.10,2013-03-25 00:12:00,
2013-03-24 20:27:00,41.1,24.0,29.72,SW,225,0.0,0.0,52,0.00,,,0.00,weatherlink.com 1.10,2013-03-25 00:27:00,
2013-03-24 20:42:00,41.4,26.0,29.72,SSE,155,0.0,1.0,54,0.00,,,0.00,weatherlink.com 1.10,2013-03-25 00:42:00,
2013-03-24 20:57:00,41.5,25.0,29.72,ESE,118,1.0,2.0,52,0.00,,,0.00,weatherlink.com 1.10,2013-03-25 00:57:00,
2013-03-24 21:12:00,41.7,25.0,29.72,ESE,123,0.0,1.0,51,0.00,,,0.00,weatherlink.com 1.10,2013-03-25 01:12:00,
2013-03-24 21:30:00,41.7,25.0,29.72,ESE,105,2.0,2.0,51,0.00,,,0.00,weatherlink.com 1.10,2013-03-25 01:30:00,
2013-03-24 21:56:00,41.5,25.0,29.71,ENE,78,1.0,3.0,53,0.00,,,0.00,weatherlink.com 1.10,2013-03-25 01:56:00,
2013-03-24 22:11:00,41.5,25.0,29.70,East,82,2.0,5.0,53,0.00,,,0.00,weatherlink.com 1.10,2013-03-25 02:11:00,
2013-03-24 22:26:00,41.5,25.0,29.69,East,89,5.0,5.0,53,0.00,,,0.00,weatherlink.com 1.10,2013-03-25 02:26:00,
2013-03-24 22:41:00,40.9,27.0,29.68,East,82,2.0,4.0,59,0.00,,,0.00,weatherlink.com 1.10,2013-03-25 02:41:00,
2013-03-24 22:56:00,40.6,27.0,29.68,ESE,117,4.0,4.0,59,0.00,,,0.00,weatherlink.com 1.10,2013-03-25 02:56:00,
2013-03-24 23:11:00,39.7,28.0,29.68,East,96,4.0,12.0,64,0.00,,,0.00,weatherlink.com 1.10,2013-03-25 03:11:00,
2013-03-24 23:27:00,38.5,28.0,29.69,SE,130,5.0,10.0,67,0.00,,,0.00,weatherlink.com 1.10,2013-03-25 03:27:00,
2013-03-24 23:42:00,37.9,29.0,29.69,SSE,154,7.0,9.0,69,0.00,,,0.00,weatherlink.com 1.10,2013-03-25 03:42:00,
2013-03-24 23:57:00,37.6,29.0,29.69,SE,145,3.0,9.0,72,0.00,,,0.00,weatherlink.com 1.10,2013-03-25 03:57:00,